FW1946 Weather Reports


Display with metric or nautical units.
time (UTC)temp
F
wind
direction
speed
MPH
gust
MPH
rain 1hr
in
rain 24hr
in
rain mn
in
humidity
%
barometer
mb
20260503024536 66 337 0.0 1.0 0.00 0.00 0.00 67 1011.8
20260503023037 68 337 0.0 2.0 0.00 0.00 0.00 65 1011.7
20260503021532 68 337 0.0 2.0 0.00 0.00 0.00 64 1011.6
20260503020039 69 355 0.0 2.0 0.00 0.00 0.00 64 1011.4
20260503014538 70 337 0.0 2.0 0.00 0.00 0.00 63 1011.4
20260503013031 71 337 0.0 0.0 0.00 0.00 0.00 62 1011.4
20260503010037 73 337 0.0 2.0 0.00 0.00 0.00 59 1011.4
20260503004530 75 337 0.0 2.0 0.00 0.00 0.00 56 1011.4
20260503003029 75 337 0.0 2.0 0.00 0.00 0.00 54 1011.3
20260503001608 75 344 1.0 4.0 0.00 0.00 0.00 54 1011.4
20260502233038 76 3 2.0 4.0 0.00 0.00 0.00 55 1012.0
20260502230158 76 29 1.0 4.0 0.00 0.00 0.00 56 1012.2
20260502224652 75 353 1.0 4.0 0.00 0.00 0.00 57 1012.4
20260502223037 75 2 2.0 5.0 0.00 0.00 0.00 57 1012.8
20260502221532 75 10 2.0 5.0 0.00 0.00 0.00 58 1013.0
20260502220039 75 9 2.0 5.0 0.00 0.00 0.00 58 1013.2
20260502214531 74 307 1.0 5.0 0.00 0.00 0.00 58 1013.4
20260502213031 72 320 1.0 3.0 0.00 0.00 0.00 60 1013.6
20260502211535 72 343 0.0 4.0 0.00 0.00 0.00 60 1013.9
20260502210031 71 347 0.0 3.0 0.00 0.00 0.00 61 1014.1
20260502204528 71 358 2.0 4.0 0.00 0.00 0.00 60 1014.2
20260502203037 71 339 0.0 3.0 0.00 0.00 0.00 62 1014.4
20260502200035 64 235 1.0 5.0 0.00 0.00 0.00 72 1014.6
20260502193105 62 337 3.0 5.0 0.00 0.00 0.00 71 1015.3
20260502191607 63 337 3.0 5.0 0.00 0.00 0.00 71 1015.5
20260502184649 62 356 3.0 7.0 0.00 0.00 0.00 73 1016.1
20260502183034 61 16 2.0 5.0 0.00 0.00 0.00 73 1016.2
20260502181536 62 354 2.0 6.0 0.00 0.00 0.00 72 1016.0
20260502161537 56 355 2.0 5.0 0.00 0.00 0.00 80 1016.6
20260502151530 55 342 2.0 4.0 0.00 0.00 0.00 81 1016.1
20260502130128 53 16 1.0 4.0 0.00 0.00 0.00 83 1014.9
20260502123038 53 355 1.0 4.0 0.00 0.00 0.00 82 1014.8
20260502121607 54 337 0.0 2.0 0.00 0.00 0.00 82 1014.8
20260502113036 55 232 0.0 2.0 0.00 0.00 0.00 78 1014.8
20260502111536 56 208 0.0 2.0 0.00 0.00 0.00 78 1014.8
20260502110046 57 317 1.0 6.0 0.00 0.00 0.00 77 1015.0
20260502104607 57 197 0.0 4.0 0.00 0.00 0.00 75 1015.5
20260502103036 58 197 1.0 7.0 0.00 0.00 0.00 74 1015.4
20260502100153 58 299 1.0 6.0 0.00 0.00 0.00 72 1015.5
20260502091534 59 280 2.0 10.0 0.00 0.00 0.00 72 1015.8
20260502090137 57 322 2.0 11.0 0.00 0.00 0.00 77 1015.5
20260502071530 62 215 0.0 3.0 0.00 0.00 0.00 62 1015.4
20260502064537 62 281 0.0 5.0 0.00 0.00 0.00 62 1015.6
20260502063035 63 316 0.0 5.0 0.00 0.00 0.00 61 1015.5
20260502061534 63 329 1.0 6.0 0.00 0.00 0.00 61 1015.4
20260502060031 63 230 1.0 4.0 0.00 0.00 0.00 61 1015.4
20260502054530 63 230 0.0 5.0 0.00 0.00 0.00 61 1015.1
20260502051532 65 230 0.0 5.0 0.00 0.00 0.00 58 1015.0
20260502044605 65 248 0.0 4.0 0.00 0.00 0.00 57 1014.9
20260502041531 66 254 1.0 9.0 0.00 0.00 0.00 57 1014.5
20260502040036 67 278 1.0 7.0 0.00 0.00 0.00 56 1014.2
20260502034536 68 295 2.0 10.0 0.00 0.00 0.00 54 1014.2
20260502033140 68 271 1.0 6.0 0.00 0.00 0.00 54 1014.2
20260502031532 68 249 2.0 7.0 0.00 0.00 0.00 54 1014.1
20260502030035 68 220 1.0 8.0 0.00 0.00 0.00 53 1013.7